BSAT-3C (JCSAT-110R)

Last updated on Wed Oct 15 2025 00:02:46 GMT+0000 (Coordinated Universal Time)

1 37776U 11041B 25287.29419162 -.00000365 00000+0 00000+0 0 9998 2 37776 0.0426 43.0472 0000051 118.2714 77.6599 1.00270022 48014
UTC large
Height (km)
Speed (km/s)
/
Latitude / Longitude
Inclination (degrees)
Orbital Period (minutes)
Azimuth
Elevation
Range (km)
Doppler Factor

Next 0 passes for location: London (51.5072 / 0.1276)

Sorry there are no passes over London.